Weather Roundup
Issued by NWS Springfield, MO

Home | Current Version | Previous Version | Text Only | Print | Product List | Glossary On
Versions: 1 2 3 4 5 6 7 8 9 10 11 12 13 14 15 16 17 18 19 20 21 22 23 24 25 26 27 28 29 30 31 32 33 34 35 36 37 38 39 40 41 42 43 44 45 46 47 48 49 50
000
NZUS99 KSGF 231759
HRRSGF

HOURLY WEATHER
NATIONAL WEATHER SERVICE SPRINGFIELD MO
100 PM CDT WED JUL 23 2014

......SGF CWA......

CITY           SKY/WX    TMP DP  RH WIND       PRES   REMARKS
SPRINGFIELD    MOSUNNY   88  78  72 N10       30.08F HX 101
6HR MIN TEMP:  80; 6HR MAX TEMP:  89;

JOPLIN         CLOUDY    77  64  64 NW29G49   30.15R SQUALL
6HR MIN TEMP:  77; 6HR MAX TEMP:  88;

WEST PLAINS    PTSUNNY   91  78  65 NE8       30.04F HX 106
6HR MIN TEMP:  73; 6HR MAX TEMP:  92;

ROLLA          SUNNY     90  69  50 N10       30.06F HX  94
6HR MIN TEMP:  77; 6HR MAX TEMP:  90;

OSAGE BEACH    SUNNY     90  72  55 NE10      30.08S HX  96
BRANSON        PTSUNNY   95  75  52 NW7       30.07F HX 107

......SURROUNDING SGF CWA......

CITY           SKY/WX    TMP DP  RH WIND       PRES   REMARKS
CHANUTE        RAIN      71  66  84 NE9       30.15F
PARSONS        CLOUDY    71  67  87 N8        30.16F
COFFEYVILLE    TSTM      73  70  90 N9        30.13F
EMPORIA        CLOUDY    76  69  79 NE15      30.14F
SILOAM SPRINGS PTSUNNY   91  73  55 NW8       30.10F HX 100
HARRISON AR    PTSUNNY   92  75  57 NW6       30.07F HX 103

......KANSAS AND MISSOURI......

CITY           SKY/WX    TMP DP  RH WIND       PRES   REMARKS
KANSAS CTY INT MOSUNNY   84  65  52 NE14      30.17F
DOWNTOWN KC    SUNNY     87  65  47 NE14      30.15S
COLUMBIA       MOSUNNY   87  69  54 N14       30.11S HX  91
SEDALIA        MOSUNNY   86  69  56 N14       30.14R HX  90
ST JOSEPH      SUNNY     83  67  58 NE9       30.18F
ST LOUIS       CLOUDY    81  70  69 NE13      30.07F
SPIRIT OF STL  PTSUNNY   82  72  71 NE14      30.06S
KIRKSVILLE     MOSUNNY   82  65  56 NE16      30.18R
WICHITA        CLOUDY    80  68  66 S3        30.14S
TOPEKA         MOSUNNY   88  65  46 NE14      30.16F HX  90
OLATHE         SUNNY     87  67  51 N17G24    30.16S HX  90

......TENNESSEE......

CITY           SKY/WX    TMP DP  RH WIND       PRES   REMARKS
MEMPHIS        MOSUNNY   90  74  59 SW5       30.04F HX  99
NASHVILLE      PTSUNNY   92  69  47 SW3       30.05F HX  97

......ARKANSAS.......

CITY           SKY/WX    TMP DP  RH WIND       PRES   REMARKS
FAYETTEVILLE   MOSUNNY   92  76  59 NW12      30.09F HX 104
FT SMITH       MOSUNNY   94  77  57 W8        30.04F HX 108
LITTLE ROCK    MOSUNNY   89  70  53 VRB6      30.03F HX  94

......OKLAHOMA.......

CITY           SKY/WX    TMP DP  RH WIND       PRES   REMARKS
TULSA          CLOUDY    89  76  65 NW8       30.07S HX 100
PONCA CITY     PTSUNNY   82  73  74 NE18      30.13R
MCALESTER      MOSUNNY   91  76  61 SW6       30.10F HX 103
OKLAHOMA CITY  PTSUNNY   93  73  52 N7        30.13F HX 102

......IOWA............

CITY           SKY/WX    TMP DP  RH WIND       PRES   REMARKS
DES MOINES     PTSUNNY   83  59  44 NE8       30.21S
QUAD CITIES    SUNNY     79  55  43 NE13G22   30.17R

......ILLINOIS........

CITY           SKY/WX    TMP DP  RH WIND       PRES   REMARKS
QUINCY         MOSUNNY   80  66  62 N14       30.13S
CHICAGO        MOSUNNY   74  48  39 NE20G26   30.16F




USA.gov is the U.S. government's official web portal to all federal, state and local government web resources and services.